COSMOS 1629

导读

COSMOS 1629是苏联(CIS)于1985年2月21日发射的卫星,隶属于“宇宙(Cosmos)”系列卫星。该系列是苏联规模最大的卫星系列,涵盖军事侦察、科学试验等多种任务,统一命名方式可隐蔽卫星真实用途。作为冷战时期苏联航天活动的产物,它见证了当时航天技术发展,目前已退役成为太空垃圾,漂浮在近地轨道。

Basic Information
目录编号:
15574
目录名称:
COSMOS 1629
国际标识:
1985-016A
轨道中心:
EARTH
卫星名称:
COSMOS 1629
卫星全名:
--
卫星状态:
在轨 (已飞行15095 天)
发射日期:
1985-02-21 UTC
国别 :
俄罗斯(独联体) (CIS)
星等 :
--
Orbit Information
数据来源 国际轨道数据 AOE轨道数据
星历时间 2026-06-20T14:09:58+0800
1天前
查看轨道信息
2026-06-20T23:00:00+0800
19小时前
查看轨道信息
半长轴 42153.911km 42153.855km
偏心率 0.0006043 0.0005914
轨道倾角 9.124° 9.123°
近地点辐角 266.234° 265.113°
升交点赤经 314.498° 314.496°
平近点角 331.116° 105.162°
近地点 35750.3km 35750.788km
远地点 35801.248km 35800.648km
周期 1435.544分钟 1435.541分钟
每日圈数 1.003104 1.003106
Detailed Information
使用方式:
暂无
2D Orbit Map
3D Orbit Map
Orbit Altitude Analysis Chart
Orbit Inclination Analysis Chart
Orbit Comprehensive Analysis Chart
View Comprehensive Chart